Location: Dreilärchen
(47.9312°N, 8.6113°E)
Time: 23:19:21
(UTC+00:00)

USA 308 - Pass Details

Date: 26 May 2022
Orbit: 549 x 558 km, 54.0° (Epoch: 14 June)

Event Time Altitude Azimuth Distance (km) Brightness Sun altitude
Exits shadow 00:40:53 48° 204° (SSW) 736 3.0 -18.8°
Maximum altitude 00:41:51 65° 145° (SE) 615 2.8 -18.7°
Drops below altitude 10° 00:46:01 10° 64° (ENE) 1,845 6.1 -18.5°
Sets 00:48:17 0° 61° (ENE) 2,751 7.2 -18.3°
